Location: Astronomy Adventures Observing Site
(35.3995°N, 106.1279°W)
Time: 19:45:33
(UTC-06:00)

Envisat - Pass Details

Date: 26 January 2022
Orbit: 764 x 765 km, 98.2° (Epoch: 27 May)

Event Time Altitude Azimuth Distance (km) Brightness Sun altitude
Rises 05:42:04 0° 360° (N) 3,234 6.1 -17.6°
Reaches altitude 10° 05:44:36 10° 350° (N) 2,305 5.3 -17.1°
Maximum altitude 05:48:59 30° 290° (WNW) 1,339 3.7 -16.2°
Drops below altitude 10° 05:53:21 10° 230° (SW) 2,294 5.1 -15.4°
Sets 05:55:52 0° 220° (SW) 3,216 6.0 -14.9°
